This is the latest recevied weather packets stored in our database for station/object K4HOG. If no packets are shown the sender has not sent any weather packets the latest 10 day(s).
| Time | Temp. | Humidity | Pressure | Rain* | Wind** | Luminosity | Snow |
|---|---|---|---|---|---|---|---|
| 1777939366 | 23.89° C | 57% | 1014.6 hPa | 0 mm | - | 5 W/m² | - |
| 1777939062 | 24.44° C | 58% | 1014.3 hPa | 0 mm | - | 7 W/m² | - |
| 1777938759 | 24.44° C | 56% | 1014.1 hPa | 0 mm | - | 10 W/m² | - |
| 1777938456 | 24.44° C | 56% | 1014.1 hPa | 0 mm | - | 14 W/m² | - |
| 1777938153 | 25° C | 57% | 1014.1 hPa | 0 mm | - | 17 W/m² | - |
| 1777937849 | 25° C | 54% | 1014 hPa | 0 mm | - | 21 W/m² | - |
| 1777937545 | 25° C | 53% | 1014 hPa | 0 mm | - | 23 W/m² | - |
| 1777937243 | 25.56° C | 53% | 1014.1 hPa | 0 mm | - | 27 W/m² | - |
| 1777936939 | 25.56° C | 52% | 1014 hPa | 0 mm | - | 30 W/m² | - |
| 1777936636 | 25.56° C | 52% | 1013.9 hPa | 0 mm | - | 34 W/m² | - |
| 1777936333 | 26.11° C | 51% | 1014 hPa | 0 mm | - | 37 W/m² | - |
| 1777936029 | 26.11° C | 50% | 1013.8 hPa | 0 mm | - | 40 W/m² | - |
| 1777935728 | 26.11° C | 49% | 1013.9 hPa | 0 mm | - | 44 W/m² | - |
| 1777935426 | 26.67° C | 48% | 1013.9 hPa | 0 mm | - | 47 W/m² | - |
| 1777935121 | 26.67° C | 47% | 1014 hPa | 0 mm | - | 50 W/m² | - |
| 1777934819 | 27.22° C | 47% | 1013.8 hPa | 0 mm | - | 58 W/m² | - |
| 1777934515 | 27.22° C | 46% | 1013.9 hPa | 0 mm | - | 110 W/m² | - |
| 1777934213 | 27.78° C | 43% | 1013.8 hPa | 0 mm | - | 163 W/m² | - |
| 1777933908 | 27.78° C | 43% | 1013.8 hPa | 0 mm | - | 179 W/m² | - |
| 1777933605 | 28.33° C | 41% | 1013.9 hPa | 0 mm | - | 205 W/m² | - |
| 1777933302 | 28.33° C | 41% | 1013.7 hPa | 0 mm | - | 220 W/m² | - |
| 1777933000 | 28.33° C | 39% | 1013.8 hPa | 0 mm | - | 233 W/m² | - |
| 1777932696 | 28.89° C | 39% | 1014.1 hPa | 0 mm | - | 254 W/m² | - |
| 1777932393 | 28.33° C | 40% | 1013.9 hPa | 0 mm | - | 272 W/m² | - |
| 1777932091 | 28.33° C | 39% | 1013.9 hPa | 0 mm | - | 291 W/m² | - |
* Rain latest hour (hover to see other rain measurements)
** Current wind speed in m/s (hover to see current wind gust speed)